Content
SEND FEEDBACK

Daily
Averages
Monthly
Summary
United States of America

ST. LOUIS, MISSOURI


Home > North America > United States > Missouri
Elevation: 535 feet     Latitude: 38 45N     Longitude: 090 22W

WEATHER
 
SELECT A DAY
Number of Records: 196,649;   Date Range: 1/1/95 - 9/18/14
 
SHARE

PRINT THIS DATA

[ ← Previous Day ]
WEATHER ALMANAC - JULY 8, 2013
[ Next Day → ]
[ °C ]   °F
We're sorry. There is no daily almanac available for St. Louis, Missouri on July 8, 2013.
WEATHER BY HOUR - JULY 8, 2013
[ °C ]   °F
Local TimeTemperatureDewpointHumidityBarometerVisibilityWind DirectionWind SpeedGust SpeedPrecipitationEventsConditions
1:54 AM79.0 °F66.0 °F64 %30.01 in10.0 miSSW (200°)6.9 mphClear
2:54 AM78.1 °F66.0 °F66 %30.00 in10.0 miSSW (200°)9.2 mphClear
3:54 AM75.9 °F66.0 °F71 %30.01 in10.0 miCalmClear
4:54 AM75.0 °F66.0 °F73 %30.01 in10.0 miSSW (200°)4.6 mphClear
5:54 AM73.9 °F66.0 °F76 %30.02 in10.0 miCalmClear
6:54 AM75.9 °F66.9 °F74 %30.03 in10.0 miSSW (210°)5.8 mphMostly Cloudy
7:54 AM78.1 °F69.1 °F74 %30.04 in10.0 miSW (220°)5.8 mphMostly Cloudy
8:54 AM80.1 °F70.0 °F71 %30.06 in10.0 miWSW (240°)4.6 mphMostly Cloudy
9:54 AM82.9 °F71.1 °F67 %30.06 in10.0 miWSW (240°)6.9 mphMostly Cloudy
10:54 AM87.1 °F72.0 °F61 %30.07 in10.0 miSSW (200°)6.9 mphMostly Cloudy
11:54 AM88.0 °F72.0 °F59 %30.06 in10.0 miSSW (210°)6.9 mphMostly Cloudy
12:54 PM90.0 °F72.0 °F55 %30.05 in10.0 miSSW (210°)9.2 mphScattered Clouds
1:54 PM91.9 °F72.0 °F52 %30.03 in10.0 miSouth (190°)10.4 mphScattered Clouds
2:54 PM93.0 °F71.1 °F49 %30.01 in10.0 miSW (220°)10.4 mphScattered Clouds
3:54 PM91.9 °F70.0 °F48 %30.01 in10.0 miSW (230°)9.2 mphMostly Cloudy
4:54 PM89.1 °F73.0 °F59 %30.01 in10.0 miSouth (190°)3.5 mphMostly Cloudy
5:54 PM89.1 °F75.0 °F63 %29.99 in10.0 miSouth (190°)3.5 mphMostly Cloudy
6:54 PM90.0 °F73.0 °F57 %29.99 in10.0 miSouth (190°)5.8 mphMostly Cloudy
7:54 PM87.1 °F75.0 °F67 %29.98 in10.0 miSouth (190°)4.6 mphMostly Cloudy
8:54 PM84.0 °F73.9 °F72 %29.98 in10.0 miSouth (180°)3.5 mphClear
9:54 PM81.0 °F75.0 °F82 %30.00 in10.0 miCalmClear
10:54 PM79.0 °F72.0 °F79 %30.01 in10.0 miCalmClear
11:54 PM79.0 °F72.0 °F79 %30.01 in10.0 miCalmClear
Hourly data recorded from KSUS, located miles away from St. Louis, Missouri







STORIES FROM OUR PARTNERS